Regional Weather Roundup
Issued by NWS

Home | Current Version | Previous Version | Graphics & Text | Print | Product List | Glossary Off
Versions: 1 2 3 4 5 6 7 8 9 10 11 12 13 14 15 16 17 18 19 20 21 22 23 24 25 26 27 28 29 30 31 32 33 34 35 36 37 38 39 40 41 42 43 44 45 46 47 48 49 50

000
ASUS43 KTOP 300259
RWRKS

WEATHER ROUNDUP FOR KANSAS
NATIONAL WEATHER SERVICE GOODLAND KS
1000 PM CDT WED OCT 29 2014

NOTE:  "FAIR" INDICATES FEW OR NO CLOUDS BELOW 12,000 FEET WITH NO
SIGNIFICANT WEATHER AND/OR OBSTRUCTIONS TO VISIBILITY.

KSZ001>006-013>018-027>032-041>047-300400-
NORTHWEST KANSAS

CITY           SKY/WX    TMP DP  RH WIND       PRES   REMARKS
GOODLAND       PTCLDY    53  25  33 W13       30.08R
HAYS           CLEAR     52  37  58 S7        30.02R
HILL CITY      CLEAR     45  33  63 CALM      30.00S
RUSSELL        CLEAR     56  34  43 S13       30.01R
$$

KSZ061>065-074>080-084>089-300400-
SOUTHWEST KANSAS

CITY           SKY/WX    TMP DP  RH WIND       PRES   REMARKS
DODGE CITY     CLEAR     55  36  48 S10       30.07S
ELKHART          N/A     58  36  44 S9          N/A
GARDEN CITY    CLEAR     50  38  63 S8        30.06R
GREAT BEND     CLEAR     55  30  38 S15       30.04F
LIBERAL        CLEAR     54  37  54 S10       30.09S
$$

KSZ066>073-081>083-090>101-300400-
SOUTHEAST KANSAS

CITY           SKY/WX    TMP DP  RH WIND       PRES   REMARKS
CHANUTE        CLEAR     49  39  68 SE7       30.12S
COFFEYVILLE    CLEAR     52  41  66 S5        30.13S
HUTCHINSON     CLEAR     57  34  41 S12       30.07S
NEWTON         CLEAR     54  30  40 S9        30.09S
PARSONS        CLEAR     54  41  61 SE3       30.13S
WICHITA INTL   CLEAR     52  32  46 S9        30.08F
WICHITA JABRA  CLEAR     58  32  37 S9        30.08F
WINFIELD       CLEAR     51  38  60 S8        30.11F
$$

KSZ007>012-019>026-033>040-048>060-102>105-300400-
NORTHEAST KANSAS

CITY           SKY/WX    TMP DP  RH WIND       PRES   REMARKS
CONCORDIA      CLEAR     56  39  53 S14       30.01S
EMPORIA        CLEAR     49  38  65 S8        30.09F
LAWRENCE       CLEAR     46  36  68 SE7       30.10F
MANHATTAN      CLEAR     54  38  54 S7        30.05F
OLATHE IND     CLEAR     50  35  56 SE7       30.11F
OLATHE EXE     CLEAR     48  34  58 SE6       30.11S
SALINA         CLEAR     51  37  58 S6        30.03F
TOPEKA BILLARD CLEAR     50  37  61 E3        30.09F
TOPEKA FORBES  CLEAR     48  37  65 SE8       30.08F
$$



USA.gov is the U.S. government's official web portal to all federal, state and local government web resources and services.